Weather History for Caldwell, ID

Change the Weather History Date:

Monday, November 12, 2012

  Actual Average (KBOI) Record (KBOI)
Temperature  
Mean Temperature 30 °F 42 °F  
Max Temperature 37 °F 50 °F 70 °F (1999)
Min Temperature 24 °F 33 °F 10 °F (1916)
Degree Days  
Heating Degree Days 34 23  
Month to date heating degree days 253  
Since 1 July heating degree days 759  
Cooling Degree Days 0 0  
Month to date cooling degree days 0  
Year to date cooling degree days 942  
Moisture  
Dew Point 21 °F    
Average Humidity 62    
Maximum Humidity 75    
Minimum Humidity 44    
Precipitation  
Precipitation 0.00 in 0.05 in 0.60 in (1995)
Month to date precipitation 0.49  
Year to date precipitation 9.32  
Snow  
Snow 0.00 in 0.00 in 1.50 in (1945)
Month to date snowfall 0.4  
Since 1 July snowfall 0.5  
Snow Depth -    
Sea Level Pressure  
Sea Level Pressure 30.40 in    
Wind  
Wind Speed 9 mph (SSE)    
Max Wind Speed 14 mph    
Max Gust Speed 17 mph    
Visibility 10 miles    
Events      
T = Trace of Precipitation, MM = Missing Value Source: NWS Daily Summary

Daily Weather History Graph

Daily Weather History Graph

Search for Another Location

Airport:

Trip Planner

Search our weather history database for the weather conditions in past years. The results will help you decide how hot, cold, wet, or windy it might be!

Date:

Astronomy

Nov. 12, 2012 Rise Set
Actual Time 7:37 AM MST 5:23 PM MST
Civil Twilight 7:06 AM MST 5:54 PM MST
Nautical Twilight 6:32 AM MST 6:28 PM MST
Astronomical Twilight 5:58 AM MST 7:02 PM MST
Moon 6:06 AM MST (11/12) 4:32 PM MST (11/12)
Length of Visible Light 10h 47m
Length of Day
9h 46m
Waning Crescent, 2% of the Moon is Illuminated
Nov 12
Waning Crescent
Nov 13
New
Nov 20
First Quarter
Nov 28
Full
Dec 6
Last Quarter

Hourly Weather History & Observations

Time (MST) Temp. Windchill Dew Point Humidity Pressure Visibility Wind Dir Wind Speed Gust Speed Precip Events Conditions
12:15 AM 24.8 °F 16.1 °F 12.2 °F 59% 30.41 in 10.0 mi ESE 8.1 mph - N/A   Clear
12:35 AM 26.6 °F 18.2 °F 15.8 °F 64% 30.41 in 10.0 mi SE 8.1 mph - N/A   Scattered Clouds
12:55 AM 28.4 °F 20.4 °F 15.8 °F 59% 30.41 in 10.0 mi SE 8.1 mph - N/A   Partly Cloudy
1:15 AM 28.4 °F 21.2 °F 15.8 °F 59% 30.40 in 10.0 mi SE 6.9 mph - N/A   Scattered Clouds
1:35 AM 28.4 °F 21.2 °F 15.8 °F 59% 30.41 in 10.0 mi SE 6.9 mph - N/A   Partly Cloudy
1:55 AM 26.6 °F 18.2 °F 14.0 °F 59% 30.41 in 10.0 mi ESE 8.1 mph - N/A   Clear
2:15 AM 26.6 °F 19.1 °F 14.0 °F 59% 30.40 in 10.0 mi SE 6.9 mph - N/A   Clear
2:35 AM 24.8 °F 15.3 °F 14.0 °F 64% 30.40 in 10.0 mi ESE 9.2 mph - N/A   Clear
3:15 AM 28.4 °F 19.7 °F 15.8 °F 59% 30.40 in 10.0 mi SE 9.2 mph - N/A   Partly Cloudy
3:35 AM 28.4 °F 19.7 °F 15.8 °F 59% 30.40 in 10.0 mi SE 9.2 mph - N/A   Clear
3:55 AM 28.4 °F 19.7 °F 15.8 °F 59% 30.39 in 10.0 mi SSE 9.2 mph - N/A   Clear
4:15 AM 30.2 °F 21.9 °F 15.8 °F 55% 30.39 in 10.0 mi SSE 9.2 mph - N/A   Scattered Clouds
4:35 AM 30.2 °F 24.3 °F 15.8 °F 55% 30.40 in 10.0 mi SSE 5.8 mph - N/A   Scattered Clouds
4:55 AM 30.2 °F 24.3 °F 15.8 °F 55% 30.41 in 10.0 mi South 5.8 mph - N/A   Mostly Cloudy
5:15 AM 30.2 °F 22.6 °F 15.8 °F 55% 30.41 in 10.0 mi SSE 8.1 mph - N/A   Mostly Cloudy
5:35 AM 30.2 °F 21.9 °F 15.8 °F 55% 30.40 in 10.0 mi SSE 9.2 mph - N/A   Mostly Cloudy
5:55 AM 30.2 °F 21.9 °F 14.0 °F 51% 30.40 in 10.0 mi South 9.2 mph - N/A   Overcast
6:15 AM 30.2 °F 21.3 °F 14.0 °F 51% 30.40 in 10.0 mi South 10.4 mph - N/A   Overcast
6:55 AM 30.2 °F 22.6 °F 15.8 °F 55% 30.40 in 10.0 mi South 8.1 mph - N/A   Overcast
7:15 AM 30.2 °F 22.6 °F 14.0 °F 51% 30.41 in 10.0 mi South 8.1 mph - N/A   Overcast
7:35 AM 30.2 °F 23.4 °F 15.8 °F 55% 30.41 in 10.0 mi South 6.9 mph - N/A   Overcast
7:55 AM 30.2 °F 22.6 °F 15.8 °F 55% 30.42 in 10.0 mi South 8.1 mph - N/A   Overcast
8:15 AM 30.2 °F 22.6 °F 15.8 °F 55% 30.42 in 10.0 mi SSE 8.1 mph - N/A   Overcast
8:35 AM 30.2 °F 22.6 °F 15.8 °F 55% 30.42 in 10.0 mi SSE 8.1 mph - N/A   Overcast
8:55 AM 32.0 °F 24.2 °F 15.8 °F 51% 30.43 in 10.0 mi SSE 9.2 mph - N/A   Overcast
9:15 AM 32.0 °F 23.6 °F 15.8 °F 51% 30.43 in 10.0 mi SSE 10.4 mph - N/A   Overcast
9:35 AM 32.0 °F 24.2 °F 15.8 °F 51% 30.42 in 10.0 mi SSE 9.2 mph - N/A   Overcast
9:55 AM 33.8 °F 25.8 °F 15.8 °F 48% 30.42 in 10.0 mi SSE 10.4 mph - N/A   Overcast
10:15 AM 33.8 °F 25.3 °F 15.8 °F 48% 30.42 in 10.0 mi SSE 11.5 mph - N/A   Overcast
10:35 AM 33.8 °F 27.0 °F 15.8 °F 48% 30.43 in 10.0 mi SSE 8.1 mph - N/A   Overcast
10:55 AM 33.8 °F 27.7 °F 15.8 °F 48% 30.43 in 10.0 mi SSE 6.9 mph - N/A   Overcast
11:15 AM 35.6 °F 28.6 °F 15.8 °F 44% 30.42 in 10.0 mi SSE 9.2 mph - N/A   Overcast
11:35 AM 35.6 °F 28.0 °F 17.6 °F 48% 30.42 in 10.0 mi SSE 10.4 mph - N/A   Overcast
11:55 AM 37.4 °F 29.8 °F 17.6 °F 45% 30.41 in 10.0 mi SSE 11.5 mph - N/A   Overcast
12:15 PM 37.4 °F 30.3 °F 17.6 °F 45% 30.41 in 10.0 mi SSE 10.4 mph - N/A   Overcast
12:35 PM 37.4 °F 29.3 °F 19.4 °F 48% 30.41 in 10.0 mi SSE 12.7 mph - N/A   Overcast
12:55 PM 37.4 °F 29.8 °F 21.2 °F 52% 30.40 in 10.0 mi SSE 11.5 mph - N/A   Overcast
1:15 PM 37.4 °F 31.4 °F 24.8 °F 60% 30.40 in 10.0 mi SSE 8.1 mph - N/A   Overcast
1:35 PM 37.4 °F 32.1 °F 24.8 °F 60% 30.39 in 10.0 mi SW 6.9 mph - N/A   Overcast
1:55 PM 37.4 °F 32.1 °F 24.8 °F 60% 30.39 in 10.0 mi SSW 6.9 mph - N/A   Overcast
2:15 PM 37.4 °F 28.9 °F 21.2 °F 52% 30.39 in 10.0 mi SSE 13.8 mph 17.3 mph N/A   Overcast
2:35 PM 37.4 °F 31.4 °F 26.6 °F 65% 30.39 in 10.0 mi SSE 8.1 mph - N/A   Overcast
2:55 PM 35.6 °F 28.6 °F 26.6 °F 70% 30.39 in 10.0 mi South 9.2 mph - N/A   Overcast
3:35 PM 35.6 °F 29.9 °F 28.4 °F 75% 30.38 in 10.0 mi SSE 6.9 mph - N/A   Overcast
3:55 PM 35.6 °F 30.7 °F 28.4 °F 75% 30.39 in 10.0 mi SSE 5.8 mph - N/A   Overcast
4:15 PM 35.6 °F 28.6 °F 28.4 °F 75% 30.38 in 10.0 mi SSE 9.2 mph - N/A   Mostly Cloudy
4:35 PM 35.6 °F 29.2 °F 28.4 °F 75% 30.38 in 10.0 mi SSE 8.1 mph - N/A   Overcast
4:55 PM 35.6 °F 28.6 °F 28.4 °F 75% 30.37 in 10.0 mi SE 9.2 mph - N/A   Overcast
5:15 PM 35.6 °F 27.5 °F 28.4 °F 75% 30.37 in 10.0 mi SE 11.5 mph 16.1 mph N/A   Overcast
5:35 PM 35.6 °F 27.5 °F 28.4 °F 75% 30.36 in 10.0 mi SE 11.5 mph - N/A   Overcast
5:55 PM 35.6 °F 26.6 °F 28.4 °F 75% 30.36 in 10.0 mi SE 13.8 mph - N/A   Overcast
6:15 PM 35.6 °F 27.5 °F 28.4 °F 75% 30.37 in 10.0 mi SSE 11.5 mph - N/A   Overcast
6:35 PM 35.6 °F 27.1 °F 28.4 °F 75% 30.37 in 10.0 mi SSE 12.7 mph - N/A   Overcast
6:55 PM 35.6 °F 27.5 °F 28.4 °F 75% 30.37 in 10.0 mi SSE 11.5 mph - N/A   Overcast
7:35 PM 35.6 °F 26.6 °F 28.4 °F 75% 30.37 in 10.0 mi SSE 13.8 mph - N/A   Overcast
7:55 PM 35.6 °F 26.6 °F 28.4 °F 75% 30.37 in 10.0 mi SSE 13.8 mph - N/A   Overcast
8:15 PM 35.6 °F 27.5 °F 28.4 °F 75% 30.37 in 10.0 mi SSE 11.5 mph 17.3 mph N/A   Overcast
8:35 PM 35.6 °F 28.6 °F 28.4 °F 75% 30.37 in 10.0 mi SSE 9.2 mph - N/A   Overcast
8:55 PM 35.6 °F 27.5 °F 28.4 °F 75% 30.37 in 10.0 mi SSE 11.5 mph - N/A   Overcast
9:15 PM 35.6 °F 28.6 °F 28.4 °F 75% 30.37 in 10.0 mi SSE 9.2 mph - N/A   Overcast
9:35 PM 35.6 °F 28.0 °F 28.4 °F 75% 30.38 in 10.0 mi SE 10.4 mph - N/A   Mostly Cloudy
9:55 PM 35.6 °F 28.6 °F 28.4 °F 75% 30.38 in 10.0 mi SE 9.2 mph - N/A   Overcast
10:15 PM 35.6 °F 29.9 °F 28.4 °F 75% 30.38 in 10.0 mi SE 6.9 mph - N/A   Overcast
10:35 PM 35.6 °F 28.6 °F 28.4 °F 75% 30.38 in 10.0 mi SE 9.2 mph - N/A   Overcast
10:55 PM 35.6 °F 29.2 °F 28.4 °F 75% 30.38 in 10.0 mi SE 8.1 mph - N/A   Overcast
11:15 PM 35.6 °F 29.2 °F 28.4 °F 75% 30.38 in 10.0 mi SE 8.1 mph - N/A   Overcast
11:35 PM 35.6 °F 29.9 °F 28.4 °F 75% 30.38 in 10.0 mi SSE 6.9 mph - N/A   Overcast
11:55 PM 35.6 °F 29.9 °F 28.4 °F 75% 30.38 in 10.0 mi SE 6.9 mph - N/A   Overcast